Location: Great Chart
(51.1333°N, 0.8333°E)
Time: 00:42:16
(UTC+00:00)

Daily predictions for brighter satellites

Satellite Brightness Start Highest point End
(mag) Time Altitude Azimuth Time Altitude Azimuth Time Altitude Azimuth
SL-16 R/B 3.9 00:12:20 32° ENE 00:12:20 32° ENE 00:17:37 10° N
Cosmos 1943 Rocket 3.8 00:17:16 31° NNE 00:17:16 31° NNE 00:20:14 10° NNE
COSMOS 2455 4.2 00:18:59 35° NNW 00:18:59 35° NNW 00:23:43 10° NNE
CZ-2D R/B 4.5 00:18:53 10° NE 00:20:45 15° ENE 00:20:45 15° ENE
USA 229 DEB 4.4 00:19:35 10° NW 00:24:44 51° NNW 00:24:44 51° NNW
USA 229 4.4 00:19:41 10° NW 00:24:51 51° NNW 00:24:51 51° NNW
Cosmos 2297 Rocket 3.8 00:23:46 10° NNW 00:28:40 29° NE 00:28:49 29° NE
Resurs 1-4 Rocket 4.2 00:32:30 10° NE 00:34:54 20° ENE 00:34:54 20° ENE
Cosmos 2369 Rocket 3.6 00:41:06 35° N 00:41:06 35° N 00:44:25 10° NNE
NOSS 3-1 (A) 4.2 00:31:39 10° NW 00:37:41 64° NNW 00:37:41 64° NNW
CZ-4C R/B 3.5 00:47:10 37° NNW 00:47:10 37° NNW 00:52:53 10° NE
ATLAS 2AS CENTAUR R/B 4.4 00:49:17 10° WNW 00:56:19 33° N 01:03:04 10° NE
Cosmos 2227 Rocket 3.1 01:20:36 10° NNW 01:25:13 46° NNE 01:25:13 46° NNE
USA 234 3.4 01:28:15 10° ESE 01:34:44 70° NNE 01:37:43 35° NW
ADEOS II 3.5 01:34:03 10° NNE 01:38:28 31° E 01:38:28 31° E
Cosmos 2219 4.3 01:34:15 10° NNW 01:37:45 39° NNW 01:37:45 39° NNW
Cosmos 2181 Rocket 4.1 01:47:57 67° ENE 01:47:57 67° ENE 01:53:47 10° NNE
SL-16 R/B 3.2 01:57:26 43° NW 01:57:26 43° NW 02:01:43 10° NNW
Cosmos 1959 Rocket 4.5 01:49:32 10° N 01:55:10 74° NNE 01:55:10 74° NNE
Cosmos 2341 Rocket 4.5 01:53:03 10° NNW 01:57:55 50° NW 01:57:55 50° NW
Cosmos 1943 Rocket 4.1 01:58:47 18° NW 01:59:36 18° NNW 02:03:24 10° N
ARIANE 5 R/B 4.2 01:56:32 10° NE 02:00:42 25° E 02:01:51 23° ESE
IRS-1D 4.2 01:56:47 10° NNE 02:01:47 52° E 02:01:47 52° E
CZ-2D R/B 2.5 01:57:47 10° NNE 02:02:04 57° N 02:02:04 57° N
ATLAS 5 CENTAUR R/B 2.8 02:07:56 41° NE 02:07:56 41° NE 02:11:11 10° NE
NPP 3.9 02:03:50 10° NNE 02:08:28 66° N 02:08:28 66° N
Cosmos 2297 Rocket 3.4 02:07:35 10° NNW 02:10:32 32° NW 02:10:32 32° NW
CBERS-1 4.4 02:09:11 10° NNE 02:13:59 60° E 02:13:59 60° E
Resurs 1-4 Rocket 2.6 02:11:41 10° N 02:15:58 53° NNW 02:15:58 53° NNW
Cosmos 2082 3.9 02:11:49 10° NNW 02:17:31 68° ENE 02:20:24 30° SE
Cosmos 2369 Rocket 4.1 02:22:52 17° NW 02:24:03 18° NNW 02:27:55 10° NNE
SJ 16-02 4.1 02:24:24 10° N 02:27:32 19° NE 02:30:40 10° E
Gbstr 26 Del rocket 4.4 02:27:25 44° W 02:30:28 86° N 02:38:12 10° E
Cosmos 1697 Rocket 3.5 02:32:33 38° SE 02:33:45 43° ESE 02:39:03 10° NE
IRS-P3 4.4 02:29:18 10° NNE 02:34:37 62° ESE 02:35:28 54° SE
CZ-4C R/B 4.3 02:32:20 12° NW 02:37:02 28° N 02:43:07 10° ENE
Cosmos 1980 Rocket 3.9 02:35:19 19° SE 02:38:05 27° ESE 02:42:47 10° NE
H-2A R/B 4.1 02:34:39 10° ESE 02:38:23 28° ENE 02:42:12 10° N
USA 267 3.4 02:34:20 10° ENE 02:40:51 63° SE 02:42:17 51° SSW
NOSS 2-2 (E) 4.4 02:38:02 10° NW 02:43:28 88° SW 02:51:06 10° SE
Cosmos 2263 Rocket 3.6 02:38:19 10° NNW 02:43:33 37° NE 02:48:47 10° ESE
SL-8 R/B 4.3 02:46:01 47° SE 02:46:01 47° SE 02:49:36 10° ESE
Cosmos 1818 3.5 02:46:11 69° WNW 02:46:31 72° NW 02:51:59 10° NE
ATLAS 2AS CENTAUR R/B 4.2 02:42:09 10° NW 02:49:20 38° NNE 02:56:05 10° E
NOSS 2-2 (D) 4.3 02:46:35 10° NW 02:51:55 90° SW 02:59:23 10° SE
USA 307 4.2 02:52:25 30° SE 02:52:25 30° SE 02:55:48 10° ENE
Cosmos 1821 Rocket 3.9 02:46:56 10° N 02:53:19 87° WSW 02:56:29 31° S
Cosmos 1470 Rocket 3.7 02:50:15 10° N 02:54:42 72° ENE 02:55:25 59° SE
USA 308 4.1 02:55:23 32° SE 02:55:23 32° SE 02:58:55 10° ENE
SL-24 R/B 4.3 02:59:50 52° SSE 03:01:02 88° WSW 03:06:23 10° NNW
Celestis-02/Orion 38 4.4 03:02:35 10° SSE 03:07:51 72° WSW 03:13:01 10° NNW
Cosmos 1934 Rocket 4.0 03:02:15 10° N 03:08:20 75° E 03:14:24 10° SSE
Cosmos 1777 Rocket 3.8 03:03:40 10° NNW 03:08:54 72° WSW 03:12:06 24° S
Cosmos 2227 Rocket 3.8 03:04:59 10° NW 03:06:57 20° WNW 03:06:57 20° WNW
Cosmos 1238 Rocket 4.3 03:03:52 10° N 03:10:33 72° ENE 03:16:50 10° SSE
Cosmos 1992 Rocket 4.4 03:10:37 45° WNW 03:11:08 46° WNW 03:16:12 10° NNE
Cosmos 1782 3.4 03:10:11 40° SSE 03:11:18 55° E 03:15:16 10° NNE
Lacrosse 5 2.3 03:12:00 43° S 03:13:09 53° SE 03:18:05 10° ENE
Cosmos 1656 3.7 03:12:05 51° WSW 03:13:11 62° NW 03:18:42 10° NNE
Cosmos 1515 Rocket 3.8 03:15:08 36° SSE 03:16:50 68° E 03:21:16 10° NNE
CZ-2C R/B 3.7 03:13:18 10° NNE 03:16:55 44° E 03:18:32 27° SSE
Meteor 1-20 Rocket 4.1 03:11:35 10° NNW 03:16:59 60° W 03:18:42 41° SSW
ADEOS Rocket 4.3 03:10:45 10° SE 03:17:02 44° ENE 03:22:46 10° N
USA 234 3.2 03:11:29 10° SE 03:17:54 58° SW 03:24:22 10° WNW
ADEOS II 2.4 03:13:35 10° N 03:18:36 46° WNW 03:19:23 43° W
CZ-4B R/B 4.0 03:15:25 10° N 03:20:08 41° WNW 03:20:43 40° W
USA 276 3.1 03:21:38 40° ESE 03:21:38 40° ESE 03:24:05 10° E
Nadezhda 3 Rocket 3.9 03:18:39 35° SSW 03:21:24 74° WNW 03:27:34 10° N
Cosmos 220 Rocket 4.4 03:24:54 42° WNW 03:25:00 43° WNW 03:29:06 10° NNE
SL-08 R/B 3.9 03:26:12 36° WNW 03:26:12 36° WNW 03:29:47 10° NNW
Cosmos 972 Rocket 3.8 03:24:15 42° SSW 03:25:57 87° WNW 03:30:55 10° NNE
Cosmos 44 4.4 03:24:49 21° S 03:27:08 34° ESE 03:31:20 10° NE
Cosmos 1356 3.5 03:23:42 10° N 03:27:10 75° ENE 03:28:27 35° SSE
Cosmos 1633 Rocket 4.3 03:23:31 10° NNW 03:26:00 26° NW 03:26:00 26° NW
MSX 4.1 03:21:59 10° NNE 03:27:47 70° ESE 03:32:39 15° S
Timation 1 Rocket 4.2 03:22:19 10° NW 03:28:16 69° WSW 03:34:14 10° SSE
Cosmos 1328 Rocket 3.6 03:28:49 51° WSW 03:29:29 57° WNW 03:33:55 10° N
Cosmos 1605 Rocket 4.2 03:24:41 10° N 03:31:07 74° E 03:37:31 10° SSE
Cosmos 2278 3.9 03:28:10 25° SSW 03:31:33 69° ESE 03:37:14 10° NNE
IDEFIX/ARIANE 42P 2.5 03:26:20 10° NNE 03:31:38 82° WNW 03:34:28 28° SSW
Cosmos 1535 Rocket 4.4 03:25:35 10° NNW 03:31:59 81° W 03:38:22 10° S
Cosmos 1933 Rocket 3.4 03:27:43 10° NNW 03:32:05 71° W 03:34:18 28° S
CZ-3B R/B 1.9 03:32:05 52° W 03:32:53 81° NNW 03:41:30 10° ENE
Cosmos 1606 4.1 03:34:14 24° NW 03:34:14 24° NW 03:36:39 10° N
Cosmos 2228 Rocket 3.7 03:31:12 13° S 03:35:00 55° E 03:39:20 10° NNE
IRS-1C 4.4 03:30:16 10° N 03:35:25 50° WNW 03:37:13 36° WSW
Cosmos 1151 Rocket 3.4 03:37:30 42° W 03:37:57 43° WNW 03:42:07 10° N
Cosmos 2369 3.7 03:36:41 32° SW 03:39:27 77° WNW 03:45:14 10° NNE
ARIANE 5 R/B 2.6 03:35:08 10° N 03:40:10 56° WNW 03:42:11 33° SW
CZ-2D R/B 3.8 03:39:06 10° NNW 03:42:25 17° NW 03:43:22 16° WNW
CZ-4C R/B 2.9 03:42:39 21° S 03:44:56 70° WSW 03:48:32 10° NNW
Cosmos 1869 Rocket 3.6 03:46:42 10° N 03:51:05 78° E 03:55:24 10° SSE
ATLAS 5 CENTAUR R/B 3.3 03:49:28 18° WNW 03:51:45 26° NNW 03:56:02 10° NE
Cosmos 1933 4.4 03:54:06 27° WNW 03:54:21 27° WNW 03:57:52 10° N
Resurs 1-4 Rocket 4.0 03:53:18 10° NNW 03:55:46 13° NW 03:57:02 12° WNW
Meteor 1-4 Rocket 3.9 03:53:58 10° SSE 03:57:12 38° E 04:00:30 10° NNE
USA 305 2.9 03:58:51 30° SW 04:00:53 74° SSE 04:05:07 10° ENE
X-37B 1.8 04:01:25 26° SSW 04:01:48 27° S 04:04:33 10° ESE
CZ-2D R/B 4.0 03:59:43 10° N 04:03:38 39° WNW 04:05:24 26° WSW
Cosmos 2360 4.3 04:00:37 23° SW 04:04:13 62° NW 04:09:56 10° NNE
USA 306 2.9 04:02:46 28° WSW 04:04:57 77° SSE 04:09:12 10° ENE
SJ 16-02 1.2 04:02:14 10° NNW 04:06:39 72° WSW 04:11:01 10° SSE
Cosmos 389 Rocket 2.8 04:06:11 29° SW 04:07:34 46° WNW 04:11:02 10° N
Cosmos 1727 Rocket 4.4 04:01:25 10° S 04:07:42 68° E 04:14:00 10° NNE
PSLV R/B 3.6 04:04:43 10° NNE 04:08:57 80° ESE 04:13:09 10° SSW
Meteor 1-26 Rocket 4.5 04:06:29 20° SW 04:09:52 44° WNW 04:15:03 10° N
ASTEX 1 4.0 04:08:10 10° N 04:12:43 36° WNW 04:15:51 18° SW
H-2A R/B 2.5 04:10:04 10° S 04:14:12 41° W 04:18:27 10° NNW
ERS-2 2.1 04:11:25 10° S 04:15:02 58° WSW 04:18:41 10° NNW
Iridium 2 4.3 04:14:43 23° SW 04:16:22 34° WNW 04:19:51 10° N
CZ-2C R/B 2.5 04:11:28 10° NNE 04:16:35 87° ESE 04:21:47 10° SSW
Cosmos 1339 Rocket 4.5 04:10:38 10° SSW 04:16:55 68° WNW 04:23:08 10° N
NOSS 3-4 (A) 4.1 04:10:24 10° NW 04:17:14 74° NE 04:24:50 10° SE
NOSS 3-4 (C) 4.1 04:10:31 10° NW 04:17:20 73° NE 04:24:56 10° SE
Cosmos 1697 Rocket 3.3 04:14:19 20° WSW 04:17:47 41° NW 04:23:06 10° NNE
Gbstr 26 Del rocket 4.4 04:10:01 10° WNW 04:18:02 66° SSW 04:25:12 10° SE
Cosmos 192 4.3 04:14:10 14° SSW 04:18:21 70° WNW 04:23:17 10° NNE
PAYLOAD A 3.7 04:15:26 10° NNE 04:20:11 79° WNW 04:24:52 10° SSW
Cosmos 1980 Rocket 2.3 04:17:07 16° SW 04:21:43 62° NW 04:27:21 10° NNE
USA 267 3.4 04:17:27 10° ENE 04:23:57 67° NNW 04:29:37 14° W
Cosmos 990 Rocket 3.9 04:21:06 10° NNW 04:26:16 69° WSW 04:31:26 10° SSE
SL-8 R/B 4.4 04:24:00 18° W 04:27:02 36° SSW 04:31:23 10° SE
Cosmos 2322 Rocket 3.3 04:21:48 10° S 04:27:10 46° ESE 04:32:36 10° NE
Meteor 1-10 Rocket 4.3 04:21:27 10° SSW 04:27:14 82° WNW 04:33:09 10° NNE
CZ-4C R/B 4.0 04:21:00 10° NW 04:27:16 42° NNE 04:34:38 10° E
Cosmos 1459 Rocket 4.2 04:21:22 10° N 04:27:31 74° ENE 04:33:33 10° SSE
Cosmos 2263 Rocket 2.3 04:22:14 10° NW 04:27:41 50° WSW 04:33:07 10° S
NOSS 3-3 (A) 4.1 04:22:46 10° SSW 04:28:36 75° SE 04:35:16 10° NE
NOSS 3-3 (C) 4.1 04:22:57 10° SSW 04:28:43 75° SE 04:35:21 10° NE
USA 307 2.9 04:28:36 17° WSW 04:31:49 84° NNW 04:36:05 10° ENE
Cosmos 1812 2.8 04:28:08 10° SSW 04:31:55 55° WNW 04:35:44 10° N
Cosmos 468 Rocket 4.3 04:26:41 10° SSW 04:31:57 70° ESE 04:37:12 10° NNE
Cosmos 1844 Rocket 3.6 04:29:06 10° NNW 04:34:37 53° NE 04:40:09 10° SE
SL-16 R/B 2.7 04:29:13 10° SSW 04:34:47 61° ESE 04:40:24 10° NE
USA 308 2.9 04:31:34 16° WSW 04:34:54 82° NNW 04:39:11 10° ENE
Cosmos 1500 4.0 04:31:42 10° NNW 04:35:06 29° W 04:38:26 10° SSW
COSMO-SKYMED 1 3.6 04:32:44 10° SE 04:36:57 52° ENE 04:41:11 10° N
SL-4 R/B 4.4 04:35:18 10° S 04:38:51 22° SE 04:42:31 10° E
ATLAS CENTAUR R/B 3.4 04:29:27 10° WNW 04:40:32 66° NNE 04:44:44 10° E
Cosmos 1666 2.8 04:37:21 10° NNW 04:41:07 52° W 04:44:49 10° S
ATLAS 2AS CENTAUR R/B 3.0 04:33:41 10° NW 04:41:23 82° NE 04:48:25 10° SE
ERBS 3.3 04:43:24 10° SSW 04:46:36 43° SE 04:49:49 10° ENE
Cosmos 1782 4.5 04:45:50 12° W 04:47:59 17° WNW 04:50:43 10° NNW
CZ-4B R/B 1.7 04:46:07 10° S 04:49:07 40° W 04:52:11 10° NNW
CZ-2C R/B 4.2 04:48:20 10° NNW 04:51:06 20° WNW 04:53:53 10° WSW
Cosmos 1898 Rocket 3.8 04:49:44 10° NW 04:54:43 46° WSW 04:59:43 10° S
deb Chang Zheng 4 3.5 04:50:38 10° NNE 04:54:58 76° WNW 04:59:14 10° SSW
Lacrosse 5 2.2 04:51:11 10° W 04:56:10 57° NNW 05:01:11 10° ENE
ADEOS II 4.2 04:56:41 10° NW 04:57:05 10° NW 04:57:29 10° NW
USA 276 2.2 04:53:59 10° W 04:57:07 73° S 05:00:21 10° E
Cosmos 2173 Rocket 4.0 04:51:25 10° NNW 04:57:42 71° W 05:04:01 10° S
CZ-4B R/B 3.8 04:55:24 10° NNE 04:59:02 48° E 05:02:33 10° S
CZ-4B R/B 4.2 04:54:54 10° NNE 04:59:11 83° ESE 05:03:36 10° SSW
BREEZE-M DEB (TANK) 3.8 04:57:11 10° WSW 05:00:25 69° SSE 05:10:15 10° E
BREEZE-M DEB (TANK) 3.8 04:55:41 10° SW 05:01:10 30° S 05:03:43 10° ESE
USA 234 4.5 04:57:34 10° SSW 05:01:54 19° WSW 05:06:16 10° W
ADEOS Rocket 3.5 04:56:10 10° SSW 05:02:36 43° W 05:08:28 10° NNW
USA 32 4.4 04:59:44 10° NNW 05:04:39 42° W 05:09:33 10° SSW
ADEOS 3.6 05:01:45 10° N 05:06:57 66° WNW 05:12:07 10° SSW
Cosmos 2061 Rocket 4.1 05:00:52 10° N 05:07:20 86° W 05:13:47 10° S
Cosmos 1707 Rocket 3.8 05:03:55 10° SSW 05:08:05 48° WNW 05:12:19 10° N
Cosmos 44 3.6 05:03:55 10° WSW 05:08:15 45° NW 05:12:50 10° NE
Cosmos 921 Rocket 3.8 05:06:00 10° WSW 05:09:44 31° WNW 05:13:31 10° N
IDEFIX/ARIANE 42P 4.2 05:07:11 10° NNW 05:10:29 17° NW 05:13:46 10° W
Cosmos 372 Rocket 4.0 05:06:43 10° NNW 05:11:56 84° WSW 05:17:03 10° SSE
